K2EJ-13 Weather Reports


time (UTC)temp
F
wind
direction
speed
knots
gust
knots
rain 1hr
in
rain 24hr
in
rain mn
in
humidity
%
barometer
mb
20260504050515 44 0.0 0.0 0.00 0.00 0.00 89 1015.0
20260504045516 44 0.0 0.0 0.00 0.00 0.00 86 1015.1
20260504044515 45 0.0 0.0 0.00 0.00 0.00 85 1015.0
20260504043515 45 0.0 0.0 0.00 0.00 0.00 86 1014.9
20260504042515 45 0.0 0.0 0.00 0.00 0.00 85 1014.7
20260504041535 46 0.0 0.0 0.00 0.00 0.00 84 1014.7
20260504040515 46 0.0 0.0 0.00 0.00 0.00 83 1014.7
20260504035535 46 0.0 0.0 0.00 0.00 0.00 82 1014.6
20260504034515 46 0.0 0.0 0.00 0.00 0.00 81 1014.4
20260504033515 46 0.0 0.0 0.00 0.00 0.00 82 1014.3
20260504032516 46 0.0 0.0 0.00 0.00 0.00 80 1014.2
20260504031515 47 0.0 0.0 0.00 0.00 0.00 80 1014.3
20260504030515 47 0.0 0.0 0.00 0.00 0.00 79 1014.2
20260504025515 47 0.0 0.0 0.00 0.00 0.00 77 1014.2
20260504024515 47 0.0 0.0 0.00 0.00 0.00 78 1014.2
20260504023515 47 0.0 0.0 0.00 0.00 0.00 75 1014.2
20260504022515 48 0.0 0.0 0.00 0.00 0.00 75 1014.2
20260504021515 48 0.0 0.0 0.00 0.00 0.00 73 1014.2
20260504020515 49 0.0 0.0 0.00 0.00 0.00 73 1014.2
20260504015515 49 0.0 0.0 0.00 0.00 0.00 70 1014.1
20260504014515 49 0.0 0.0 0.00 0.00 0.00 70 1014.0
20260504013515 50 0.0 0.0 0.00 0.00 0.00 69 1014.0
20260504012515 50 0.0 0.0 0.00 0.00 0.00 67 1014.0
20260504011515 51 0.0 0.0 0.00 0.00 0.00 66 1013.8
20260504010515 51 0.0 0.0 0.00 0.00 0.00 63 1013.7
20260504005515 51 0.0 0.0 0.00 0.00 0.00 62 1013.7
20260504004536 52 0.0 0.0 0.00 0.00 0.00 60 1013.6
20260504003535 53 0.0 0.0 0.00 0.00 0.00 57 1013.4
20260504002536 53 0.0 0.0 0.00 0.00 0.00 57 1013.3
20260504001515 54 0.0 0.0 0.00 0.00 0.00 56 1013.3
20260504000515 55 0.0 0.0 0.00 0.00 0.00 55 1013.2
20260503235535 56 0.0 0.0 0.00 0.00 0.00 53 1013.1
20260503234515 57 0.0 0.0 0.00 0.00 0.00 50 1012.8
20260503233515 58 0.0 0.0 0.00 0.00 0.00 46 1012.7
20260503232515 59 234 0.0 4.3 0.00 0.00 0.00 43 1012.8
20260503231515 59 0.0 0.0 0.00 0.00 0.00 42 1012.9
20260503230515 60 217 0.0 3.5 0.00 0.00 0.00 40 1012.9
20260503225515 60 221 0.0 4.3 0.00 0.00 0.00 39 1012.9
20260503224636 61 221 1.7 8.7 0.00 0.00 0.00 38 1012.8
20260503223515 62 335 0.9 5.2 0.00 0.00 0.00 35 1012.8
20260503222535 62 254 0.9 3.5 0.00 0.00 0.00 35 1012.8
20260503221515 62 230 1.7 5.2 0.00 0.00 0.00 36 1012.8
20260503220515 62 273 0.9 6.1 0.00 0.00 0.00 36 1012.8
20260503215536 62 357 0.0 1.7 0.00 0.00 0.00 35 1012.8
20260503214515 62 307 0.9 5.2 0.00 0.00 0.00 37 1012.8
20260503213515 62 282 0.9 7.0 0.00 0.00 0.00 36 1012.8
20260503212515 62 301 1.7 5.2 0.00 0.00 0.00 35 1012.8
20260503211515 62 322 0.9 4.3 0.00 0.00 0.00 36 1012.7
20260503210515 61 304 1.7 6.1 0.00 0.00 0.00 35 1012.8
20260503205535 62 333 0.0 7.0 0.00 0.00 0.00 37 1012.9
20260503204515 62 205 1.7 6.1 0.00 0.00 0.00 38 1012.9
20260503203515 62 294 0.9 5.2 0.00 0.00 0.00 35 1013.0
20260503202515 63 330 1.7 7.0 0.00 0.00 0.00 34 1013.0
20260503201515 64 340 1.7 7.8 0.00 0.00 0.00 35 1013.2
20260503200515 63 230 1.7 7.8 0.00 0.00 0.00 37 1013.3
20260503195515 63 274 0.9 5.2 0.00 0.00 0.00 36 1013.4
20260503194515 61 320 2.6 7.8 0.00 0.00 0.00 36 1013.5
20260503193515 60 299 2.6 7.8 0.00 0.00 0.00 38 1013.6
20260503192515 61 274 1.7 7.8 0.00 0.00 0.00 37 1013.7
20260503191516 62 276 2.6 8.7 0.00 0.00 0.00 38 1013.8
20260503190515 62 340 2.6 7.8 0.00 0.00 0.00 35 1013.9
20260503185556 62 228 2.6 11.3 0.00 0.00 0.00 38 1013.9
20260503184515 63 242 2.6 10.4 0.00 0.00 0.00 37 1014.1
20260503183515 62 246 2.6 10.4 0.00 0.00 0.00 37 1014.3
20260503182515 62 40 1.7 7.8 0.00 0.00 0.00 39 1014.3
20260503181515 62 254 2.6 7.0 0.00 0.00 0.00 37 1014.3
20260503180515 61 298 1.7 5.2 0.00 0.00 0.00 37 1014.4
20260503175516 61 312 2.6 7.8 0.00 0.00 0.00 36 1014.5
20260503174515 61 130 2.6 6.1 0.00 0.00 0.00 39 1014.5
20260503173516 61 313 3.5 9.6 0.00 0.00 0.00 37 1014.5
20260503172516 61 325 2.6 6.1 0.00 0.00 0.00 36 1014.7
20260503171515 59 270 1.7 5.2 0.00 0.00 0.00 40 1014.7
20260503170515 59 297 1.7 5.2 0.00 0.00 0.00 36 1014.8
20260503150515 56 332 1.7 7.0 0.00 0.00 0.00 45 1015.4
20260503130535 53 321 2.6 9.6 0.00 0.00 0.00 50 1015.4
20260503110515 42 343 0.0 1.7 0.00 0.00 0.00 74 1014.2
20260503081516 43 268 0.0 0.9 0.00 0.00 0.00 77 1012.6
20260503080515 43 317 0.0 2.6 0.00 0.00 0.00 77 1012.6
20260503072535 44 346 0.9 5.2 0.00 0.00 0.00 75 1012.1
20260503071516 44 302 0.9 4.3 0.00 0.00 0.00 77 1012.0
20260503070515 44 12 0.0 2.6 0.00 0.00 0.00 78 1012.1
20260503054515 45 292 0.0 0.9 0.00 0.00 0.00 77 1012.1